Location: Unspecified
(38.6064°N, 0.0000°E)
Time: 03:48:46
(UTC+00:00)

STRAND 1 - Visible Passes

Search period start: 04 April 2026 00:00
Search period end: 14 April 2026 00:00
Orbit: 761 x 775 km, 98.4° (Epoch: 28 March)

Date Brightness Start Highest point End Pass type
(mag) Time Alt. Az. Time Alt. Az. Time Alt. Az.
4 Apr ? 04:34:33 10° SE 04:39:24 47° ENE 04:44:15 10° N visible
5 Apr ? 03:59:53 10° ESE 04:03:43 22° ENE 04:07:34 10° NNE visible
5 Apr ? 19:29:16 10° NW 19:31:30 13° WNW 19:33:42 10° W visible
6 Apr ? 03:27:43 10° ENE 03:28:15 10° ENE 03:28:46 10° NE visible
6 Apr ? 05:01:24 10° SSE 05:06:29 87° ENE 05:11:34 10° NNW visible
6 Apr ? 18:51:44 10° N 18:55:58 27° WNW 19:00:11 10° SW visible
7 Apr ? 04:25:59 10° SE 04:30:40 39° ENE 04:35:21 10° N visible
8 Apr ? 03:51:36 10° ESE 03:55:02 19° ENE 03:58:27 10° NNE visible
8 Apr ? 19:19:54 10° NNW 19:22:50 16° WNW 19:25:45 10° W visible
9 Apr ? 04:52:40 10° SSE 04:57:43 72° ENE 05:02:46 10° N visible
10 Apr ? 04:17:28 10° SE 04:21:56 32° ENE 04:26:24 10° N visible
11 Apr ? 03:43:27 10° E 03:46:21 16° ENE 03:49:15 10° NNE visible
11 Apr ? 19:10:41 10° NNW 19:14:09 19° WNW 19:17:36 10° WSW visible
12 Apr ? 04:43:59 10° SSE 04:48:56 59° ENE 04:53:55 10° N visible
13 Apr ? 04:09:00 10° SE 04:13:12 27° ENE 04:17:25 10° N visible
13 Apr ? 19:40:12 10° NW 19:40:55 10° WNW 19:41:39 10° WNW visible
